Regional Weather Roundup
Issued by NWS Upton, NY

Current Version | Previous Version | Graphics & Text | Print | Product List | Glossary Off
Versions: 1 2 3 4 5 6 7 8 9 10 11 12 13 14 15 16 17 18 19 20 21 22 23 24 25 26 27 28 29 30 31 32 33 34 35 36 37 38 39 40 41 42 43 44 45 46 47 48 49

000
ASUS41 KOKX 132205
RWROKX

REGIONAL WEATHER ROUNDUP
NATIONAL WEATHER SERVICE NEW YORK NY
600 PM EDT SUN JUL 13 2014

NOTE: "FAIR" INDICATES FEW OR NO CLOUDS BELOW 12,000 FEET WITH NO
SIGNIFICANT WEATHER AND/OR OBSTRUCTIONS TO VISIBILITY.

NYZ071-072-176-178-NJZ106-104-132300-
NEW YORK CITY METRO AREA


CITY           SKY/WX    TMP DP  RH WIND       PRES   REMARKS
CENTRAL PARK   PTSUNNY   78  70  76 VRB6      29.93F
LAGUARDIA APRT PTSUNNY   78  69  73 S15G22    29.91F
KENNEDY INTL   CLOUDY    74  69  85 S25G33    29.93F
NEWARK/LIBERTY CLOUDY    84  71  65 S10       29.90S
BRNX BOT. GARD   N/A     77  70  78 SE5       29.93F
TETERBORO      DRIZZLE   84  70  62 S12G17    29.88F
$$

NYZ177-179-078>081-132300-
LONG ISLAND NEW YORK

CITY           SKY/WX    TMP DP  RH WIND       PRES   REMARKS
FARMINGDALE    PTSUNNY   74  70  87 S17G25    29.94F
ISLIP          CLOUDY    76  69  79 S13       29.93F
SHIRLEY        MOSUNNY   75  68  78 S17       29.96F
WESTHAMPTON    MOSUNNY   73  68  84 S10       29.98F
MONTAUK POINT    N/A     73  69  87 S8        29.99F
$$

NYZ052-065-067-132300-
HUDSON VALLEY

CITY           SKY/WX    TMP DP  RH WIND       PRES   REMARKS
WHITE PLAINS   MOSUNNY   76  70  82 S9        29.92F
NEWBURGH         N/A     81  73  78 S14       29.90F
MONTGOMERY     PTSUNNY   82  73  74 S7        29.87F
POUGHKEEPSIE   PTSUNNY   82  70  66 S8        29.86F
ALBANY         LGT RAIN  76  72  87 S14       29.83F FOG
$$

NJZ001-105-106-008-010-013-015-019>022-104-132300-
NEW JERSEY

CITY           SKY/WX    TMP DP  RH WIND       PRES   REMARKS
NEWARK/LIBERTY CLOUDY    84  71  65 S10       29.90S
TETERBORO      DRIZZLE   84  70  62 S12G17    29.88F
CALDWELL       PTSUNNY   83  72  69 S5        29.89F
MORRISTOWN     CLOUDY    86  73  66 S9        29.89F HX  93
SOMERVILLE     MOSUNNY   87  69  54 S6        29.87F HX  91
LINDEN         FAIR      85  72  65 S9        29.91F HX  91
SUSSEX         PTSUNNY   86  72  62 SW8       29.88F HX  92
ANDOVER          N/A     84  70  62 SW7       29.90F
TRENTON        MOSUNNY   88  69  53 SW10      29.90F HX  92
MILLVILLE      MOSUNNY   82  73  74 S9        29.94F
ATLANTIC CITY  SUNNY     80  71  74 S17G25    29.95F
WRIGHTSTOWN    MOSUNNY   87  73  64 S12       29.89F HX  94
TOMS RIVER     MOSUNNY   82  72  69 S16G22    29.94F
BELMAR         MOSUNNY   79  72  78 SE10G16   29.93F
$$

PAZ047>061-062-071-132300-
EASTERN PENNSYLVANIA

CITY           SKY/WX    TMP DP  RH WIND       PRES   REMARKS
PHILADELPHIA   PTSUNNY   90  68  48 SW8       29.91F HX  94
ALLENTOWN      PTSUNNY   86  70  58 SW13G20   29.90F HX  90
SCRANTON       MOSUNNY   83  69  62 SW10      29.87F
$$

CTZ002-004>006-009-010-012-RIZ004-006-007-MAZ004-011-015-132300-
SOUTHERN NEW ENGLAND
 IN CT

CITY           SKY/WX    TMP DP  RH WIND       PRES   REMARKS
BRADLEY INTL   PTSUNNY   83  66  56 S16G24    29.90F
HARTFORD       MOSUNNY   80  67  64 S14G22    29.91F
DANBURY        MOSUNNY   78  68  71 S9        29.94S
WTRBRY/OXFORD  MOSUNNY   79  66  65 S12G21    29.97F
BRIDGEPORT     MOSUNNY   79  69  71 S14       29.93F
MERIDEN        MOSUNNY   79  66  64 S14G21    29.92F
NEW HAVEN      MOSUNNY   80  69  69 S8        29.94F
CHESTER        FAIR      77  64  65 S13G18    29.97F
GROTON         PTSUNNY   70  68  93 S10       29.97F
WILLIMANTIC    MOSUNNY   80  66  62 S14       29.94F

 IN RI

CITY           SKY/WX    TMP DP  RH WIND       PRES   REMARKS
PROVIDENCE     PTSUNNY   77  66  68 S20G28    29.98F
BLOCK ISLAND   MOSUNNY   73  66  78 S15       30.00F
WESTERLY       CLOUDY    72  67  84 S10       30.00F

 IN MA

CITY           SKY/WX    TMP DP  RH WIND       PRES   REMARKS
BOSTON         PTSUNNY   79  63  57 S20       29.92F
WORCESTER      PTSUNNY   77  65  66 S15       29.96F
WESTFIELD      NOT AVBL
PROVINCETOWN   SUNNY     73  64  73 S18       29.99S
NANTUCKET      SUNNY     72  65  78 S14       30.03F
$$

ANZ330-335-338-340-345-350-353-355-132300-
COASTAL MARINE OBSERVATIONS


STATION/POSITION TIME  SKY/WX   TEMP    WIND        PRES    VSBY  WAVE
                                AIR SEA DIR/SP/G                  HT/PER
                 (UTC)          (F)     (DEG/KT/KT) (MB)    (MI)  (FT/S)
NY HARB ENTRANCE NOT AVBL
4S FIRE IS       2100               70                N/A           4/ 5
23SW MTP         2200            71 69              1014.6          3/ 4
HUDSON CANYON    2200            73 72  190/ 16/ 17 1015.8          3/ 4
EXECUTION ROCKS  2200            75 66  200/ 14/ 21   N/A
WESTERN LI SOUND 2200            75     180/ 14/ 19   N/A           1/ 2
CENTRAL LI SOUND 2100            74 72  190/ 10/ 12   N/A           2/ 3
EASTERN LI SOUND 2100            69 64  180/  6/  8   N/A
ROBBINS REEF     2200            73     160/ 19/ 19   N/A
$$


>>>>>>>>>>>>>>>>>>>>>>>>>>>> KEY <<<<<<<<<<<<<<<<<<<<<<<<<<<
>                                                          <
>     SKY/WX - SKY CONDITION/PRESENT WEATHER               <
>     TMP    - TEMPERATURE IN FAHRENHEIT                   <
>     DP     - DEWPOINT IN FAHRENHEIT                      <
>     RH     - RELATIVE HUMIDITY IN PERCENT                <
>     WIND   - DIRECTION AND SPEED IN MPH                  <
>     PRES   - MEAN SEA LEVEL PRESSURE IN INCHES OF HG     <
>     WCI    - WIND CHILL INDEX                            <
>     VSB    - VISIBILITY IN MILES                         <
>     HX     - HEAT INDEX                                  <
>     TC     - TEMPERATURE IN CELSIUS                      <
>     VRB    - VARIABLE WIND DIRECTION                     <
>                                                          <
>>>>>>>>>>>>>>>>>>>>>>>>>>>> KEY <<<<<<<<<<<<<<<<<<<<<<<<<<<





USA.gov is the U.S. government's official web portal to all federal, state and local government web resources and services.